Location: Bramevaque
(42.9773°N, 0.5757°E)
Time: 04:42:03
(UTC+00:00)

Meteor 1-14 Rocket - Pass Details

Date: 15 May 2026
Orbit: 832 x 918 km, 81.3° (Epoch: 6 June)

Event Time Altitude Azimuth Distance (km) Brightness Sun altitude
Rises 23:29:22 0° 345° (NNW) 3,395 8.6 -27.7°
Reaches altitude 10° 23:31:49 10° 341° (NNW) 2,452 7.5 -27.8°
Enters shadow 23:37:09 54° 267° (W) 1,009 4.5 -27.8°
